• In Österreich
  • Länderverzeichnis
  • Für 7 Tage
  • Wassertemperatur
  • Satellitenkarten
  • Wetterkarte
  • News
  • Widgets
  • user-avatar
    Anmelden

    Stündliche Wetter Cordoba

    Heute, 23 September, Sonntag

    Zeit Temperatur Niederschläge Wind Luftdruck Luftfeuchtigkeit
    00:00 +22°C° 0 mm 6 m/S 718 mmHg 71%
    01:00 +21°C° 0 mm 5 m/S 718 mmHg 71%
    02:00 +20°C° 0 mm 5 m/S 718 mmHg 71%
    03:00 +20°C° 0 mm 5 m/S 718 mmHg 71%
    04:00 +19°C° 0 mm 4 m/S 718 mmHg 71%
    05:00 +18°C° 0 mm 4 m/S 718 mmHg 71%
    06:00 +19°C° 0 mm 4 m/S 718 mmHg 69%
    07:00 +20°C° 0 mm 5 m/S 719 mmHg 66%
    08:00 +20°C° 0 mm 5 m/S 719 mmHg 64%
    09:00 +22°C° 0 mm 5 m/S 719 mmHg 61%
    10:00 +23°C° 0 mm 5 m/S 720 mmHg 59%
    11:00 +25°C° 0 mm 5 m/S 720 mmHg 57%
    12:00 +26°C° 0 mm 5 m/S 720 mmHg 55%
    13:00 +27°C° 0 mm 5 m/S 720 mmHg 53%
    14:00 +27°C° 0 mm 5 m/S 720 mmHg 52%
    15:00 +27°C° 0 mm 5 m/S 720 mmHg 51%
    16:00 +26°C° 0 mm 5 m/S 720 mmHg 51%
    17:00 +26°C° 0 mm 5 m/S 720 mmHg 50%
    18:00 +23°C° 0 mm 5 m/S 721 mmHg 52%
    19:00 +22°C° 0 mm 4 m/S 721 mmHg 54%
    20:00 +20°C° 0 mm 3 m/S 722 mmHg 55%
    21:00 +19°C° 0 mm 4 m/S 723 mmHg 57%
    22:00 +19°C° 0 mm 4 m/S 723 mmHg 58%
    23:00 +18°C° 0 mm 4 m/S 723 mmHg 59%

    Morgen, 24 September, Montag

    Zeit Temperatur Niederschläge Wind Luftdruck Luftfeuchtigkeit
    00:00 +17°C° 0 mm 4 m/S 723 mmHg 60%
    01:00 +15°C° 0 mm 4 m/S 723 mmHg 60%
    02:00 +14°C° 0 mm 4 m/S 723 mmHg 60%
    03:00 +13°C° 0 mm 3 m/S 723 mmHg 60%
    04:00 +13°C° 0 mm 3 m/S 724 mmHg 60%
    05:00 +12°C° 0 mm 3 m/S 724 mmHg 60%
    06:00 +13°C° 0 mm 3 m/S 724 mmHg 56%
    07:00 +14°C° 0 mm 3 m/S 725 mmHg 53%
    08:00 +16°C° 0 mm 3 m/S 725 mmHg 49%
    09:00 +18°C° 0 mm 3 m/S 725 mmHg 46%
    10:00 +20°C° 0 mm 3 m/S 725 mmHg 42%
    11:00 +21°C° 0 mm 3 m/S 725 mmHg 39%
    12:00 +22°C° 0 mm 3 m/S 725 mmHg 37%
    13:00 +25°C° 0 mm 4 m/S 724 mmHg 35%
    14:00 +26°C° 0 mm 4 m/S 724 mmHg 33%
    15:00 +25°C° 0 mm 4 m/S 723 mmHg 34%
    16:00 +25°C° 0 mm 4 m/S 723 mmHg 35%
    17:00 +23°C° 0 mm 4 m/S 722 mmHg 37%
    18:00 +22°C° 0 mm 4 m/S 722 mmHg 42%
    19:00 +20°C° 0 mm 3 m/S 723 mmHg 47%
    20:00 +18°C° 0 mm 2 m/S 723 mmHg 53%
    21:00 +18°C° 0 mm 2 m/S 723 mmHg 55%
    22:00 +17°C° 0 mm 2 m/S 724 mmHg 57%
    23:00 +16°C° 0 mm 1 m/S 724 mmHg 59%

    übermorgen, 25 September, Dienstag

    Zeit Temperatur Niederschläge Wind Luftdruck Luftfeuchtigkeit
    00:00 +16°C° 0 mm 1 m/S 723 mmHg 61%
    01:00 +15°C° 0 mm 1 m/S 723 mmHg 63%
    02:00 +15°C° 0 mm 1 m/S 723 mmHg 65%
    03:00 +14°C° 0 mm 1 m/S 722 mmHg 66%
    04:00 +14°C° 0 mm 2 m/S 722 mmHg 68%
    05:00 +14°C° 0 mm 2 m/S 722 mmHg 69%
    06:00 +15°C° 0 mm 2 m/S 722 mmHg 66%
    07:00 +16°C° 0 mm 2 m/S 723 mmHg 63%
    08:00 +17°C° 0 mm 2 m/S 723 mmHg 60%
    09:00 +19°C° 0 mm 2 m/S 723 mmHg 55%
    10:00 +21°C° 0 mm 2 m/S 723 mmHg 51%
    11:00 +24°C° 0 mm 2 m/S 723 mmHg 47%
    12:00 +25°C° 0 mm 2 m/S 722 mmHg 45%
    13:00 +26°C° 0 mm 3 m/S 721 mmHg 44%
    14:00 +27°C° 0 mm 3 m/S 721 mmHg 42%
    15:00 +26°C° 0 mm 3 m/S 720 mmHg 45%
    16:00 +26°C° 0 mm 3 m/S 720 mmHg 48%
    17:00 +26°C° 0 mm 4 m/S 719 mmHg 51%
    18:00 +24°C° 0 mm 3 m/S 720 mmHg 61%
    19:00 +21°C° 0 mm 3 m/S 720 mmHg 71%
    20:00 +19°C° 0 mm 2 m/S 721 mmHg 81%
    21:00 +18°C° 0 mm 2 m/S 721 mmHg 83%
    22:00 +18°C° 0 mm 2 m/S 721 mmHg 85%
    23:00 +19°C° 0 mm 1 m/S 722 mmHg 87%

    26 September, Mittwoch

    Zeit Temperatur Niederschläge Wind Luftdruck Luftfeuchtigkeit
    00:00 +18°C° 0 mm 1 m/S 722 mmHg 87%
    01:00 +17°C° 0 mm 2 m/S 722 mmHg 88%
    02:00 +17°C° 0 mm 2 m/S 722 mmHg 89%
    03:00 +17°C° 0 mm 2 m/S 722 mmHg 90%
    04:00 +16°C° 0 mm 2 m/S 722 mmHg 91%
    05:00 +16°C° 0 mm 2 m/S 722 mmHg 92%
    06:00 +17°C° 0 mm 2 m/S 722 mmHg 87%
    07:00 +18°C° 0 mm 3 m/S 723 mmHg 82%
    08:00 +18°C° 0 mm 3 m/S 723 mmHg 77%
    09:00 +20°C° 0 mm 3 m/S 723 mmHg 69%
    10:00 +21°C° 0 mm 4 m/S 723 mmHg 61%
    11:00 +23°C° 0 mm 4 m/S 723 mmHg 53%
    12:00 +25°C° 0 mm 4 m/S 723 mmHg 51%
    13:00 +25°C° 0 mm 4 m/S 722 mmHg 48%
    14:00 +26°C° 0 mm 4 m/S 722 mmHg 45%
    15:00 +25°C° 0 mm 4 m/S 721 mmHg 47%
    16:00 +25°C° 0 mm 4 m/S 721 mmHg 49%
    17:00 +23°C° 0 mm 5 m/S 720 mmHg 51%
    18:00 +22°C° 0 mm 4 m/S 721 mmHg 56%
    19:00 +21°C° 0 mm 3 m/S 721 mmHg 61%
    20:00 +19°C° 0 mm 2 m/S 722 mmHg 66%
    21:00 +19°C° 0 mm 2 m/S 722 mmHg 68%
    22:00 +18°C° 0 mm 2 m/S 722 mmHg 70%
    23:00 +18°C° 0 mm 2 m/S 722 mmHg 72%

    27 September, Donnerstag

    Zeit Temperatur Niederschläge Wind Luftdruck Luftfeuchtigkeit
    00:00 +18°C° 0 mm 2 m/S 722 mmHg 75%
    01:00 +17°C° 0 mm 2 m/S 722 mmHg 79%
    02:00 +17°C° 0 mm 2 m/S 722 mmHg 82%
    03:00 +17°C° 0.1 mm 2 m/S 721 mmHg 85%
    04:00 +17°C° 0.1 mm 2 m/S 721 mmHg 88%
    05:00 +16°C° 0.1 mm 2 m/S 721 mmHg 91%
    06:00 +17°C° 0 mm 2 m/S 721 mmHg 89%
    07:00 +17°C° 0 mm 3 m/S 721 mmHg 88%
    08:00 +18°C° 0 mm 3 m/S 722 mmHg 86%
    09:00 +18°C° 0.1 mm 3 m/S 722 mmHg 83%
    10:00 +19°C° 0.1 mm 3 m/S 722 mmHg 80%
    11:00 +19°C° 0.1 mm 3 m/S 721 mmHg 77%
    12:00 +20°C° 0 mm 3 m/S 721 mmHg 73%
    13:00 +21°C° 0 mm 4 m/S 720 mmHg 69%
    14:00 +22°C° 0 mm 4 m/S 720 mmHg 66%
    15:00 +22°C° 0 mm 4 m/S 719 mmHg 66%
    16:00 +22°C° 0 mm 4 m/S 719 mmHg 67%
    17:00 +22°C° 0 mm 4 m/S 718 mmHg 68%
    18:00 +21°C° 0 mm 4 m/S 719 mmHg 74%
    19:00 +20°C° 0 mm 3 m/S 719 mmHg 81%
    20:00 +19°C° 0 mm 3 m/S 719 mmHg 87%
    21:00 +19°C° 0.1 mm 3 m/S 719 mmHg 89%
    22:00 +19°C° 0.1 mm 3 m/S 719 mmHg 90%
    23:00 +18°C° 0.1 mm 3 m/S 719 mmHg 92%

    28 September, Freitag

    Zeit Temperatur Niederschläge Wind Luftdruck Luftfeuchtigkeit
    00:00 +18°C° 0.1 mm 3 m/S 719 mmHg 93%
    01:00 +19°C° 0.1 mm 3 m/S 719 mmHg 93%
    02:00 +19°C° 0.1 mm 3 m/S 718 mmHg 93%
    03:00 +19°C° 0.1 mm 3 m/S 718 mmHg 94%
    04:00 +19°C° 0.1 mm 3 m/S 718 mmHg 94%
    05:00 +19°C° 0.1 mm 3 m/S 718 mmHg 94%
    06:00 +20°C° 0 mm 4 m/S 718 mmHg 91%
    07:00 +21°C° 0 mm 4 m/S 718 mmHg 88%
    08:00 +22°C° 0 mm 4 m/S 718 mmHg 84%
    09:00 +23°C° 0 mm 5 m/S 718 mmHg 78%
    10:00 +26°C° 0 mm 5 m/S 718 mmHg 72%
    11:00 +27°C° 0 mm 6 m/S 718 mmHg 66%
    12:00 +28°C° 0 mm 6 m/S 717 mmHg 62%
    13:00 +29°C° 0 mm 6 m/S 717 mmHg 59%
    14:00 +30°C° 0 mm 7 m/S 716 mmHg 56%
    15:00 +29°C° 0 mm 7 m/S 716 mmHg 59%
    16:00 +29°C° 0 mm 7 m/S 716 mmHg 61%
    17:00 +29°C° 0 mm 6 m/S 715 mmHg 63%
    18:00 +27°C° 0 mm 5 m/S 715 mmHg 70%
    19:00 +26°C° 0 mm 3 m/S 716 mmHg 77%
    20:00 +24°C° 0 mm 2 m/S 716 mmHg 84%
    21:00 +24°C° 0.3 mm 2 m/S 716 mmHg 84%
    22:00 +24°C° 0.3 mm 1 m/S 716 mmHg 84%
    23:00 +24°C° 0.3 mm 1 m/S 716 mmHg 84%
    Mehr zeigen